Location: Moscow
(55.7500°N, 37.5830°E)
Time: 21:04:31
(UTC+03:00)

Vanguard 2 Rocket - Pass Details

Date: 02 December 2021
Orbit: 554 x 3325 km, 32.9° (Epoch: 20 January)

Event Time Altitude Azimuth Distance (km) Brightness Sun altitude
Rises 20:33:24 0° 227° (SW) 4,044 10.6 -36.8°
Reaches altitude 10° 20:36:44 10° 210° (SSW) 3,466 10.0 -37.2°
Enters shadow 20:39:51 17° 190° (S) 3,269 9.6 -37.6°
